Taipei Airport, Taiwan

3:00 PM CST on June 28, 2017 (GMT +0800)
Taiwan Taoyuan International

Weather History for RCTP - October, 2012

Change the Weather History Date:

Thursday, October 11, 2012

  Actual Average Record
Temperature  
Mean Temperature 74 °F -  
Max Temperature 77 °F 82 °F 91 °F (1998)
Min Temperature 71 °F 70 °F 60 °F (2004)
Cooling Degree Days 9    
Growing Degree Days 24 (Base 50)    
Moisture  
Dew Point 60 °F    
Average Humidity 61    
Maximum Humidity 73    
Minimum Humidity 53    
Precipitation  
Precipitation 0.00 in - - ()
Sea Level Pressure  
Sea Level Pressure 29.93 in    
Wind  
Wind Speed 20 mph ()    
Max Wind Speed 26 mph    
Max Gust Speed 33 mph    
Visibility 5.4 miles    
Events Rain    
Averages and records for this station are not official NWS values.
T = Trace of Precipitation, MM = Missing Value Source: Averaged Metar Reports

Daily Weather History Graph

Daily Weather History Graph

Search for Another Location

Airport or City:

Trip Planner

Search our weather history database for the weather conditions in past years. The results will help you decide how hot, cold, wet, or windy it might be!

Date:

Astronomy

Oct. 11, 2012 Rise Set
Actual Time 5:51 AM CST 5:31 PM CST
Civil Twilight 5:28 AM CST 5:54 PM CST
Nautical Twilight 5:01 AM CST 6:21 PM CST
Astronomical Twilight 4:35 AM CST 6:47 PM CST
Moon 1:21 AM CST (10/11) 2:24 PM CST (10/11)
Length of Visible Light 12h 26m
Length of Day
11h 40m
Waning Crescent, 23% of the Moon is Illuminated
Oct 11
Waning Crescent
Oct 15
New
Oct 22
First Quarter
Oct 30
Full
Nov 7
Last Quarter

Hourly Weather History & Observations

Time (CST) Temp. Dew Point Humidity Pressure Visibility Wind Dir Wind Speed Gust Speed Precip Events Conditions
12:00 AM 73.4 °F 59.0 °F 61% 29.92 in 6.2 mi NE 19.6 mph - N/A   Scattered Clouds
12:30 AM 73.4 °F 59.0 °F 61% 29.92 in 6.2 mi NE 18.4 mph - N/A   Mostly Cloudy
1:00 AM 73.4 °F 59.0 °F 61% 29.92 in 6.2 mi NE 19.6 mph - N/A   Mostly Cloudy
1:30 AM 73.4 °F 57.2 °F 57% 29.92 in 6.2 mi NE 20.7 mph - N/A   Mostly Cloudy
2:00 AM 73.4 °F 57.2 °F 57% 29.92 in 5.6 mi NE 20.7 mph - N/A   Mostly Cloudy
2:30 AM 73.4 °F 59.0 °F 61% 29.92 in 5.0 mi NE 24.2 mph - N/A   Mostly Cloudy
3:00 AM 73.4 °F 59.0 °F 61% 29.89 in 4.3 mi NE 21.9 mph - N/A   Mostly Cloudy
3:30 AM 75.2 °F 59.0 °F 57% 29.89 in 4.3 mi NE 24.2 mph - N/A   Mostly Cloudy
4:00 AM 75.2 °F 59.0 °F 57% 29.89 in 4.3 mi NE 21.9 mph - N/A   Mostly Cloudy
4:30 AM 75.2 °F 59.0 °F 57% 29.92 in 4.3 mi NE 25.3 mph - N/A   Mostly Cloudy
5:00 AM 75.2 °F 59.0 °F 57% 29.92 in 4.3 mi NE 24.2 mph - N/A   Mostly Cloudy
5:30 AM 75.2 °F 60.8 °F 61% 29.92 in 3.7 mi NE 21.9 mph - N/A   Mostly Cloudy
6:00 AM 75.2 °F 60.8 °F 61% 29.92 in 3.7 mi NE 24.2 mph - N/A   Mostly Cloudy
6:30 AM 75.2 °F 62.6 °F 65% 29.92 in 4.3 mi NE 23.0 mph - N/A   Light Drizzle
7:00 AM 73.4 °F 62.6 °F 69% 29.95 in 4.3 mi NE 24.2 mph - N/A Rain Light Rain
7:30 AM 73.4 °F 60.8 °F 65% 29.95 in 4.3 mi NE 20.7 mph 33.4 mph N/A Rain Light Rain
8:00 AM 73.4 °F 62.6 °F 69% 29.95 in 4.3 mi NE 23.0 mph - N/A Rain Light Rain
8:30 AM 73.4 °F 60.8 °F 65% 29.95 in 4.3 mi NE 24.2 mph - N/A Rain Light Rain
9:00 AM 71.6 °F 62.6 °F 73% 29.95 in 3.7 mi NE 24.2 mph - N/A Rain Light Rain
9:30 AM 71.6 °F 62.6 °F 73% 29.95 in 3.7 mi NE 23.0 mph - N/A Rain Light Rain
10:00 AM 71.6 °F 62.6 °F 73% 29.95 in 4.3 mi NE 23.0 mph - N/A Rain Light Rain
10:30 AM 73.4 °F 60.8 °F 65% 29.95 in 5.0 mi NNE 23.0 mph - N/A Rain Light Rain
11:00 AM 73.4 °F 62.6 °F 69% 29.95 in 5.0 mi NNE 23.0 mph - N/A Rain Light Rain
11:30 AM 75.2 °F 62.6 °F 65% 29.95 in 5.6 mi NNE 23.0 mph - N/A Rain Light Rain
12:00 PM 75.2 °F 62.6 °F 65% 29.95 in 5.6 mi NNE 23.0 mph - N/A Rain Light Rain
12:30 PM 75.2 °F 60.8 °F 61% 29.92 in 5.6 mi NNE 21.9 mph 33.4 mph N/A Rain Light Rain
1:00 PM 77.0 °F 60.8 °F 57% 29.92 in 6.2 mi NE 24.2 mph - N/A   Mostly Cloudy
1:30 PM 75.2 °F 60.8 °F 61% 29.92 in 6.2 mi NE 21.9 mph 33.4 mph N/A   Mostly Cloudy
2:00 PM 75.2 °F 60.8 °F 61% 29.92 in 6.2 mi NE 24.2 mph - N/A   Mostly Cloudy
2:30 PM 75.2 °F 59.0 °F 57% 29.89 in 6.2 mi NE 24.2 mph - N/A   Mostly Cloudy
3:00 PM 75.2 °F 60.8 °F 61% 29.92 in 6.2 mi NE 20.7 mph - N/A   Mostly Cloudy
3:30 PM 75.2 °F 59.0 °F 57% 29.92 in 6.2 mi NE 23.0 mph - N/A   Mostly Cloudy
4:00 PM 75.2 °F 62.6 °F 65% 29.92 in 6.2 mi NE 24.2 mph - N/A   Mostly Cloudy
4:30 PM 75.2 °F 62.6 °F 65% 29.92 in 6.2 mi NE 25.3 mph - N/A Rain Light Rain
5:00 PM 75.2 °F 60.8 °F 61% 29.92 in 6.2 mi NE 26.5 mph - N/A   Mostly Cloudy
5:30 PM 75.2 °F 59.0 °F 57% 29.92 in 6.2 mi NE 23.0 mph - N/A   Mostly Cloudy
6:00 PM 75.2 °F 59.0 °F 57% 29.92 in 6.2 mi NE 25.3 mph - N/A   Mostly Cloudy
6:30 PM 75.2 °F 59.0 °F 57% 29.92 in 6.2 mi NE 24.2 mph - N/A   Mostly Cloudy
7:00 PM 73.4 °F 57.2 °F 57% 29.95 in 6.2 mi NE 25.3 mph - N/A   Mostly Cloudy
7:30 PM 73.4 °F 57.2 °F 57% 29.95 in 6.2 mi ENE 23.0 mph - N/A   Scattered Clouds
8:00 PM 73.4 °F 55.4 °F 53% 29.95 in 6.2 mi NE 21.9 mph - N/A   Scattered Clouds
8:30 PM 73.4 °F 55.4 °F 53% 29.98 in 6.2 mi ENE 19.6 mph - N/A   Scattered Clouds
9:00 PM 73.4 °F 57.2 °F 57% 29.98 in 6.2 mi ENE 19.6 mph - N/A   Scattered Clouds
9:30 PM 73.4 °F 55.4 °F 53% 29.98 in 6.2 mi ENE 17.3 mph - N/A   Scattered Clouds
10:00 PM 71.6 °F 55.4 °F 57% 29.98 in 6.2 mi ENE 15.0 mph - N/A   Mostly Cloudy
10:30 PM 73.4 °F 57.2 °F 57% 29.98 in 6.2 mi ENE 19.6 mph - N/A   Mostly Cloudy
11:00 PM 73.4 °F 57.2 °F 57% 29.98 in 6.2 mi ENE 18.4 mph - N/A   Mostly Cloudy
11:30 PM 73.4 °F 57.2 °F 57% 29.98 in 6.2 mi ENE 20.7 mph - N/A   Scattered Clouds